Content
SEND FEEDBACK

Daily
Averages
Monthly
Summary
United States of America

MCCORMICK, SOUTH CAROLINA


Home > North America > United States > South Carolina
Elevation: 50 feet     Latitude: 33 55N     Longitude: 082 09W

WEATHER
 
SELECT A DAY
Number of Records: 148,026;   Date Range: 5/24/00 - 7/29/14
 
SHARE

PRINT THIS DATA

[ ← Previous Day ]
WEATHER ALMANAC - JANUARY 31, 2013
[ Next Day → ]
[ °C ]   °F
Weather ElementAverageHighLow
Temperature43.2 °F50 °F (3:56 pm)37 °F (6:56 am)
Dewpoint24.8 °F44.1 °F (12:56 am)17.1 °F (4:56 pm)
Humidity50.4 %83 % (12:56 am)27 % (4:56 pm)
Barometer29.98 in30.14 in (10:56 pm)29.68 in (12:56 am)
Wind Speed13.1 mph21.9 mph (12:56 am)
Wind Gust32.2 mph (12:56 am)
Weather ElementAverage
Visibility9.9 mi
Wind DirectionWSW (260 °)

Weather ElementTotal
Precipitation---
Heating Degree Days21.5 (Base 65)
Averaged from 22 records on January 31, 2013
WEATHER CONDITIONS BREAKOUT
WIND DIRECTION BREAKOUT
WEATHER BY HOUR - JANUARY 31, 2013
[ °C ]   °F
Local TimeTemperatureDewpointHumidityBarometerVisibilityWind DirectionWind SpeedGust SpeedPrecipitationEventsConditions
12:56 AM48.9 °F44.1 °F83 %29.68 in10.0 miWSW (250°)21.9 mph32.2 mph0.00 inOvercast
1:56 AM46.0 °F37.9 °F73 %29.74 in10.0 miWSW (250°)19.6 mph29.9 mphScattered Clouds
2:56 AM44.1 °F30.0 °F58 %29.78 in10.0 miWSW (250°)17.3 mph29.9 mphMostly Cloudy
3:56 AM43.0 °F28.0 °F56 %29.81 in10.0 miWest (260°)18.4 mph29.9 mphClear
4:56 AM41.0 °F28.0 °F60 %29.84 in10.0 miWSW (250°)13.8 mph23.0 mphClear
5:56 AM37.9 °F26.1 °F62 %29.88 in10.0 miWest (260°)12.7 mph23.0 mph0.00 inSnowLight Snow
6:56 AM37.0 °F25.0 °F62 %29.94 in9.0 miWest (260°)11.5 mph18.4 mph0.00 inSnowLight Snow
7:56 AM37.0 °F23.0 °F57 %29.96 in9.0 miWest (270°)10.4 mph18.4 mph0.00 inSnowLight Snow
8:56 AM39.0 °F23.0 °F53 %30.00 in10.0 miWNW (290°)13.8 mph20.7 mph0.00 inClear
9:56 AM41.0 °F21.9 °F47 %30.02 in10.0 miWest (270°)13.8 mph27.6 mphClear
10:56 AM43.0 °F23.0 °F45 %30.03 in10.0 miWest (270°)16.1 mph25.3 mphClear
11:56 AM46.0 °F21.0 °F37 %30.04 in10.0 miWest (270°)10.4 mph27.6 mphClear
12:56 PM46.9 °F19.9 °F34 %30.02 in10.0 miWest (270°)11.5 mph28.8 mphClear
1:56 PM48.9 °F19.9 °F32 %30.02 in10.0 miWest (270°)12.7 mph27.6 mphClear
3:56 PM50.0 °F21.0 °F32 %30.04 in10.0 miWest (280°)17.3 mph28.8 mphClear
4:56 PM50.0 °F17.1 °F27 %30.05 in10.0 miWest (280°)12.7 mph24.2 mphClear
5:56 PM48.0 °F18.0 °F30 %30.06 in10.0 miWest (280°)9.2 mph16.1 mphClear
6:56 PM44.1 °F21.0 °F40 %30.09 in10.0 miWSW (240°)6.9 mphClear
7:56 PM39.9 °F23.0 °F51 %30.10 in10.0 miWSW (240°)5.8 mphClear
9:56 PM39.9 °F25.0 °F55 %30.13 in10.0 miWSW (240°)11.5 mphClear
10:56 PM39.0 °F25.0 °F57 %30.14 in10.0 miWSW (240°)8.1 mphClear
11:56 PM39.0 °F25.0 °F57 %30.14 in10.0 miSW (230°)12.7 mphClear
Hourly data recorded from KGRD, located miles away from McCormick, South Carolina







STORIES FROM OUR PARTNERS